Location: *
(45.0500°N, 12.0500°E)
Time: 13:42:51
(UTC+00:00)

Cosmos 2360 Rocket - Pass Details

Date: 09 April 2020
Orbit: 834 x 845 km, 71.0° (Epoch: 02 June)

Event Time Altitude Azimuth Distance (km) Brightness Sun altitude
Rises 23:14:18 0° 334° (NNW) 3,393 6.1 -36.9°
Reaches altitude 10° 23:16:45 10° 334° (NNW) 2,456 5.2 -36.9°
Enters shadow 23:19:26 30° 335° (NNW) 1,480 3.8 -36.9°
